Voltar ao catálogo

UNKNOWN

AtivoSSO
NORAD 60468·DEBRIS·🇺🇸 United States
Este nome de satélite ainda não foi confirmado por fontes oficiais.

Lançado Aug 16, 2024 de Vandenberg Space Force Base

Loading…

Próximas Passagens (próximas 24 horas)

TLE

AtualizadoSource: Space-Track

Época: Sep 14, 2026, 11:31 UTC

1 60468U 24149A   26257.48052518  .00006636  00000-0  20309-3 0  9997
2 60468  97.3670 337.1845 0001455 252.3451 107.7633 15.34169543115742

Acompanhe UNKNOWN em tempo real com AllMySat

Download on the App Store